Location: Poughquag
(41.6090°N, 73.6820°W)
Time: 13:15:03
(UTC-04:00)

Vanguard 3 - Pass Details

Date: 02 June 2020
Orbit: 510 x 3261 km, 33.3° (Epoch: 05 July)

Event Time Altitude Azimuth Distance (km) Brightness Sun altitude
Exits shadow 02:17:28 30° 195° (SSW) 4,454 10.2 -23.2°
Maximum altitude 02:24:49 40° 156° (SSE) 3,599 10.0 -22.7°
Drops below altitude 10° 02:36:48 10° 93° (E) 4,471 11.2 -21.7°
Sets 02:39:59 0° 86° (E) 5,130 11.7 -21.5°
